Tracking 35274 objects as of 11-Sep-2026
HD Live streaming from Space Station
objects crossing your sky now

COSMOS 1231

Track COSMOS 1231 now!
10-day predictions
COSMOS 1231 is classified as:


NORAD ID: 12110
Int'l Code: 1980-102D
Launch date: December 23, 1980
Source: Commonwealth of Independent States (former USSR) (CIS)
Launch site: PLESETSK MISSILE AND SPACE COMPLEX (PKMTR)
Your satellite tracking list
Your tracking list is empty




NASA's NSSDC Master Catalog

Two Line Element Set (TLE):
1 12110U 80102D   26254.42688757 -.00000031  00000-0 -85294-4 0  9990
2 12110  73.9913 233.2715 0038039 286.7612 147.1524 12.57139174 97962
Source of the keplerian elements: AFSPC